This demonstration page uses our WeatherBlox Daily Observations layout. Learn more.

Left ArrowRight Arrow

Hourly Observations for June 22, 2019

Temp ( °F °C ) Dew Point ( °F °C ) Humidity (%) Winds ( mph kmh ) Pressure ( in mb ) Visibility ( mi km ) Precip ( " mm )
12:59 am 00:59 Partly Cloudy 74 23.3 62 16.7 67 67 WSW 7 11 29.96 1014 10 16 0.00 0.00
1:59 am 01:59 Mostly Clear 73 22.8 61 16.1 66 66 W 9 15 29.96 1015 10 16 0.00 0.00
2:59 am 02:59 Partly Cloudy 73 22.8 61 16.1 66 66 NNW 10 17 29.95 1014 10 16 0.00 0.00
3:59 am 03:59 Mostly Clear 73 22.8 60 15.6 64 64 NNW 9 15 29.96 1015 10 16 0.00 0.00
4:59 am 04:59 Mostly Clear 72 22.2 58 14.4 61 61 N 7 11 29.96 1014 10 16 0.00 0.00
5:59 am 05:59 Mostly Cloudy 71 21.7 59 15 66 66 NNW 7 11 29.97 1015 10 16 0.00 0.00
6:59 am 06:59 Mostly Cloudy 71 21.7 60 15.6 68 68 NNW 9 15 29.99 1016 10 16 0.00 0.00
7:59 am 07:59 Cloudy 72 22.2 59 15 64 64 N 6 9 29.99 1016 10 16 0.00 0.00
8:59 am 08:59 Cloudy 72 22.2 59 15 64 64 NNW 7 11 30.00 1016 10 16 0.00 0.00
9:59 am 09:59 Cloudy 73 22.8 60 15.6 64 64 NNW 10 17 30.01 1016 10 16 0.00 0.00
10:59 am 10:59 Mostly Cloudy 72 22.2 57 13.9 59 59 NW 8 13 30.03 1017 10 16 0.00 0.00
11:59 am 11:59 Mostly Cloudy 76 24.4 52 11.1 43 43 NNW 8 13 30.03 1017 10 16 0.00 0.00
12:59 pm 12:59 Mostly Cloudy 78 25.6 52 11.1 40 40 NNW 8 13 30.01 1016 10 16 0.00 0.00
1:59 pm 13:59 Mostly Cloudy 78 25.6 56 13.3 47 47 W 10 17 30.01 1016 10 16 0.00 0.00
2:59 pm 14:59 Mostly Cloudy 80 26.7 53 11.7 39 39 WNW 14 22 30.01 1016 10 16 0.00 0.00
3:59 pm 15:59 Mostly Cloudy 80 26.7 54 12.2 41 41 NNE 8 13 30.01 1016 10 16 0.00 0.00
4:59 pm 16:59 Mostly Cloudy 81 27.2 49 9.4 33 33 W 12 19 30.01 1016 10 16 0.00 0.00
5:59 pm 17:59 Mostly Cloudy 79 26.1 56 13.3 45 45 NNE 7 11 30.00 1016 10 16 0.00 0.00
6:59 pm 18:59 Mostly Cloudy 76 24.4 58 14.4 54 54 E 6 9 30.02 1017 10 16 0.00 0.00
7:59 pm 19:59 Mostly Cloudy 75 23.9 59 15 58 58 ENE 5 7 30.01 1016 10 16 0.00 0.00
8:59 pm 20:59 Mostly Cloudy 71 21.7 61 16.1 71 71 SE 3 6 30.02 1017 10 16 0.00 0.00
9:59 pm 21:59 Mostly Cloudy 69 20.6 60 15.6 73 73 Calm 30.04 1017 10 16 0.00 0.00
10:59 pm 22:59 Mostly Clear 65 18.3 59 15 81 81 Calm 30.06 1018 10 16 0.00 0.00
11:59 pm 23:59 Clear 64 17.8 59 15 84 84 Calm 30.07 1018 10 16 0.00 0.00

Powered by AerisWeather